Tupelo, MS

11:13 AM CST on January 23, 2017 (GMT -0600)
Tupelo Regional

Weather History for KTUP - March, 2013

Change the Weather History Date:

Sunday, March 24, 2013

  Actual Average Record
Temperature  
Mean Temperature 47 °F 56 °F  
Max Temperature 56 °F 68 °F 85 °F (1935)
Min Temperature 38 °F 44 °F 24 °F (1968)
Degree Days  
Heating Degree Days 18 9  
Month to date heating degree days 399 295  
Since 1 July heating degree days 2625 2726  
Cooling Degree Days 0 1  
Month to date cooling degree days 1 2  
Year to date cooling degree days 7 4  
Moisture  
Dew Point 45 °F    
Average Humidity 76    
Maximum Humidity 100    
Minimum Humidity 51    
Precipitation  
Precipitation 0.12 in 0.14 in 1.18 in (1937)
Month to date precipitation 3.51 3.78  
Year to date precipitation 15.94 13.22  
Snow  
Snow 0.00 in 0.00 in T in (1940)
Month to date snowfall T 0.3  
Since 1 July snowfall T 2.1  
Snow Depth 0.00 in    
Sea Level Pressure  
Sea Level Pressure 29.67 in    
Wind  
Wind Speed 11 mph (West)    
Max Wind Speed 30 mph    
Max Gust Speed 44 mph    
Visibility 9 miles    
Events Rain , Thunderstorm    
T = Trace of Precipitation, MM = Missing Value Source: NWS Daily Summary

Daily Weather History Graph

Daily Weather History Graph

Search for Another Location

Airport or City:

Trip Planner

Search our weather history database for the weather conditions in past years. The results will help you decide how hot, cold, wet, or windy it might be!

Date:

Astronomy

Mar. 24, 2013 Rise Set
Actual Time 6:52 AM CDT 7:10 PM CDT
Civil Twilight 6:27 AM CDT 7:35 PM CDT
Nautical Twilight 5:58 AM CDT 8:04 PM CDT
Astronomical Twilight 5:28 AM CDT 8:34 PM CDT
Moon 4:43 PM CDT (3/24) 4:56 AM CDT (3/24)
Length of Visible Light 13h 07m
Length of Day
12h 17m
Waxing Gibbous, 92% of the Moon is Illuminated
Mar 24
Waxing Gibbous
Mar 27
Full
Apr 2
Last Quarter
Apr 10
New
Apr 18
First Quarter

Hourly Weather History & Observations

Time (CDT) Temp. Windchill Dew Point Humidity Pressure Visibility Wind Dir Wind Speed Gust Speed Precip Events Conditions
12:01 AM 53.6 °F - 51.8 °F 94% 29.66 in 6.0 mi SSE 4.6 mph - 0.02 in Rain Rain
12:10 AM 53.6 °F - 51.8 °F 94% 29.67 in 5.0 mi South 5.8 mph - 0.04 in Rain , Thunderstorm Thunderstorms and Rain
12:28 AM 53.6 °F - 51.8 °F 94% 29.65 in 7.0 mi SSE 8.1 mph - 0.06 in Rain Light Rain
12:53 AM 54.0 °F - 53.1 °F 97% 29.62 in 10.0 mi ESE 5.8 mph - 0.07 in   Overcast
1:53 AM 55.0 °F - 53.1 °F 93% 29.59 in 7.0 mi SE 9.2 mph - 0.10 in Rain Light Rain
2:45 AM 55.4 °F - 53.6 °F 94% 29.57 in 10.0 mi South 8.1 mph - 0.01 in   Overcast
2:53 AM 55.9 °F - 53.1 °F 90% 29.54 in 10.0 mi SSE 8.1 mph - 0.01 in   Overcast
3:51 AM 53.6 °F - 53.6 °F 100% 29.58 in 10.0 mi NW 4.6 mph - N/A   Mostly Cloudy
3:53 AM 54.0 °F - 53.1 °F 97% 29.58 in 10.0 mi NW 5.8 mph - N/A   Mostly Cloudy
4:37 AM 55.4 °F - 53.6 °F 94% 29.61 in 10.0 mi WNW 3.5 mph - N/A   Overcast
4:53 AM 55.0 °F - 53.1 °F 93% 29.59 in 10.0 mi Calm Calm - N/A   Overcast
5:53 AM 55.0 °F - 53.1 °F 93% 29.62 in 10.0 mi West 5.8 mph - N/A   Overcast
6:27 AM 55.4 °F - 53.6 °F 94% 29.64 in 10.0 mi WSW 5.8 mph - N/A   Overcast
6:53 AM 55.0 °F - 54.0 °F 96% 29.62 in 10.0 mi West 4.6 mph - N/A   Overcast
7:46 AM 55.4 °F - 53.6 °F 94% 29.62 in 5.0 mi West 5.8 mph - N/A   Overcast
7:53 AM 55.0 °F - 54.0 °F 96% 29.61 in 4.0 mi West 4.6 mph - N/A   Overcast
8:38 AM 55.4 °F - 53.6 °F 94% 29.63 in 10.0 mi West 8.1 mph - N/A   Overcast
8:53 AM 55.9 °F - 53.1 °F 90% 29.63 in 10.0 mi West 5.8 mph - N/A   Overcast
9:53 AM 55.0 °F - 53.1 °F 93% 29.60 in 10.0 mi West 8.1 mph - N/A   Overcast
10:53 AM 55.0 °F - 52.0 °F 89% 29.60 in 10.0 mi West 6.9 mph - N/A   Overcast
11:53 AM 53.1 °F - 50.0 °F 89% 29.62 in 3.0 mi WNW 18.4 mph 29.9 mph 0.00 in Rain Light Rain
12:23 PM 51.8 °F - 48.2 °F 88% 29.64 in 4.0 mi WNW 11.5 mph 29.9 mph 0.01 in Rain Light Rain
12:53 PM 50.0 °F - 46.0 °F 86% 29.65 in 6.0 mi WNW 16.1 mph 26.5 mph 0.01 in   Overcast
1:00 PM 50.0 °F - 46.4 °F 87% 29.65 in 10.0 mi WNW 13.8 mph 26.5 mph N/A   Overcast
1:15 PM 53.6 °F - 46.4 °F 77% 29.64 in 10.0 mi West 18.4 mph 25.3 mph N/A   Mostly Cloudy
1:46 PM 53.6 °F - 46.4 °F 77% 29.62 in 10.0 mi WNW 11.5 mph 21.9 mph N/A   Mostly Cloudy
1:53 PM 54.0 °F - 45.0 °F 72% 29.62 in 10.0 mi West 21.9 mph 31.1 mph N/A   Overcast
2:04 PM 53.6 °F - 42.8 °F 67% 29.63 in 10.0 mi West 17.3 mph 33.4 mph N/A   Overcast
2:53 PM 51.1 °F - 37.9 °F 61% 29.65 in 10.0 mi WNW 13.8 mph 34.5 mph N/A   Overcast
3:53 PM 46.9 °F - 30.9 °F 54% 29.70 in 10.0 mi WNW 19.6 mph 38.0 mph N/A   Overcast
4:53 PM 45.0 °F 38.5 °F 30.0 °F 56% 29.74 in 10.0 mi WNW 13.8 mph 28.8 mph N/A   Overcast
5:53 PM 43.0 °F 36.0 °F 28.9 °F 58% 29.77 in 10.0 mi WNW 13.8 mph 27.6 mph N/A   Overcast
6:53 PM 43.0 °F 36.8 °F 30.0 °F 60% 29.81 in 10.0 mi WNW 11.5 mph 26.5 mph N/A   Overcast
7:53 PM 43.0 °F 36.0 °F 30.0 °F 60% 29.84 in 10.0 mi NW 13.8 mph 25.3 mph N/A   Overcast
8:53 PM 42.1 °F 34.9 °F 27.0 °F 55% 29.87 in 10.0 mi NNW 13.8 mph 24.2 mph N/A   Overcast
9:53 PM 41.0 °F 32.5 °F 25.0 °F 53% 29.89 in 10.0 mi NNW 17.3 mph 26.5 mph N/A   Overcast
10:53 PM 39.9 °F 32.5 °F 24.1 °F 53% 29.91 in 10.0 mi NNW 12.7 mph 23.0 mph N/A   Overcast
11:53 PM 39.0 °F 30.3 °F 24.1 °F 55% 29.94 in 10.0 mi NW 16.1 mph 26.5 mph N/A   Mostly Cloudy